Mombasa, Kenya

6:23 PM EAT on February 09, 2016 (GMT +0300)
Moi

Weather History for HKMO - May, 2013

Change the Weather History Date:

Friday, May 10, 2013

  Actual Average Record
Temperature  
Mean Temperature 81 °F -  
Max Temperature 87 °F 87 °F 91 °F (2002)
Min Temperature 75 °F 70 °F 73 °F (1997)
Cooling Degree Days 16    
Growing Degree Days 31 (Base 50)    
Moisture  
Dew Point 73 °F    
Average Humidity 73    
Maximum Humidity 94    
Minimum Humidity 47    
Precipitation  
Precipitation 0.00 in 0.24 in - ()
Sea Level Pressure  
Sea Level Pressure 29.96 in    
Wind  
Wind Speed 8 mph ()    
Max Wind Speed 17 mph    
Max Gust Speed -    
Visibility 7.5 miles    
Events      
Averages and records for this station are not official NWS values.
T = Trace of Precipitation, MM = Missing Value Source: Averaged Metar Reports

Daily Weather History Graph

Daily Weather History Graph

Search for Another Location

Airport or City:

Trip Planner

Search our weather history database for the weather conditions in past years. The results will help you decide how hot, cold, wet, or windy it might be!

Date:

Astronomy

May. 10, 2013 Rise Set
Actual Time 6:19 AM EAT 6:16 PM EAT
Civil Twilight 5:57 AM EAT 6:37 PM EAT
Nautical Twilight 5:32 AM EAT 7:03 PM EAT
Astronomical Twilight 5:07 AM EAT 7:28 PM EAT
Moon 6:29 AM EAT (5/10) 6:41 PM EAT (5/10)
Length of Visible Light 12h 40m
Length of Day
11h 56m
New Moon, 0% of the Moon is Illuminated
May 10
New Moon
May 18
First Quarter
May 25
Full
May 31
Last Quarter
Jun 8
New

Hourly Weather History & Observations

Time (EAT) Temp. Heat Index Dew Point Humidity Pressure Visibility Wind Dir Wind Speed Gust Speed Precip Events Conditions
6:00 AM 75.2 °F - 73.4 °F 94% 29.95 in 6.2 mi WSW 3.5 mph - N/A   Scattered Clouds
7:00 AM 77.0 °F - 73.4 °F 89% 29.98 in 6.2 mi WSW 5.8 mph - N/A   Partly Cloudy
8:00 AM 78.8 °F - 71.6 °F 78% 29.98 in 6.2 mi WSW 10.4 mph - N/A   Partly Cloudy
9:00 AM 82.4 °F 88.2 °F 73.4 °F 74% 30.01 in 6.2 mi SW 9.2 mph - N/A   Partly Cloudy
10:00 AM 84.2 °F 92.3 °F 75.2 °F 74% 30.01 in 6.2 mi SSW 17.3 mph - N/A   Partly Cloudy
11:00 AM 86.0 °F 91.8 °F 71.6 °F 62% 30.01 in 6.2 mi SSE 17.3 mph - N/A   Scattered Clouds
11:30 AM 86.0 °F 93.4 °F 73.4 °F 66% 30.01 in 6.2 mi South 9.2 mph - N/A   Mostly Cloudy
1:00 PM 87.8 °F 95.6 °F 73.4 °F 62% 29.98 in 6.2 mi South 15.0 mph - N/A   Mostly Cloudy
2:00 PM 87.8 °F 93.8 °F 71.6 °F 58% 29.95 in 6.2 mi SSE 13.8 mph - N/A   Mostly Cloudy
3:00 PM 86 °F - 69 °F 47% 29.92 in 19 mi South 9.2 mph - -   Scattered Clouds
3:00 PM 86.0 °F 89.4 °F 68.0 °F 55% 29.92 in 6.2 mi South 9.2 mph - N/A   Partly Cloudy
4:00 PM 87.8 °F 95.6 °F 73.4 °F 62% 29.92 in 6.2 mi South 9.2 mph - N/A   Partly Cloudy
5:00 PM 84.2 °F 90.9 °F 73.4 °F 70% 29.92 in 6.2 mi South 13.8 mph - N/A   Scattered Clouds
6:00 PM 82.4 °F 88.2 °F 73.4 °F 74% 29.92 in 6.2 mi South 13.8 mph - N/A   Scattered Clouds
7:00 PM 80.6 °F 85.4 °F 73.4 °F 79% 29.95 in 6.2 mi SSW 11.5 mph - N/A   Partly Cloudy
8:00 PM 78.8 °F - 73.4 °F 83% 29.95 in 6.2 mi SSW 11.5 mph - N/A   Scattered Clouds
9:00 PM 77 °F - 72 °F 81% 29.96 in 19 mi SSW 6.9 mph - -   Scattered Clouds
9:00 PM 77.0 °F - 71.6 °F 83% 29.95 in 6.2 mi SSW 6.9 mph - N/A   Partly Cloudy
10:00 PM 77.0 °F - 73.4 °F 89% 29.98 in 6.2 mi SSW 3.5 mph - N/A   Partly Cloudy
10:30 PM 77.0 °F - 73.4 °F 89% 29.98 in 6.2 mi South 3.5 mph - N/A   Partly Cloudy